Simultaneous Nadir Overpasses (SNOs) Predictions

Prediction of SNOs between GOES-16 and NOAA-21 Satellite Orbit:

Table of predicted SNOs for the next 14.0 days since TLE Epoch: 1/28/2023
Index Date Time (GOES-16) GOES-16 Lat,Lon NOAA-21 Lat,Lon Distance(km) Time Diff (sec)
1 01/28/2023 06:17:10 -0.06, -75.18 -0.42, -73.45 196.91 80
2 01/29/2023 18:39:06 0.06, -75.19 -0.75, -78.76 406.99 80
3 01/30/2023 18:23:00 0.05, -75.19 0.26, -74.23 110.18 80
4 02/01/2023 06:44:46 -0.05, -75.20 0.92, -79.49 489.19 80
5 02/02/2023 06:23:21 -0.04, -75.21 -0.09, -74.96 28.14 80
6 02/04/2023 18:26:31 0.04, -75.23 -0.05, -75.74 57.29 80
7 02/05/2023 18:10:24 0.04, -75.24 0.91, -71.19 460.73 80
8 02/07/2023 06:32:11 -0.03, -75.26 0.26, -76.46 137.04 80
9 02/08/2023 06:10:45 -0.03, -75.28 -0.77, -71.93 381.30 80
10 02/09/2023 18:32:40 0.03, -75.30 -0.38, -77.24 220.19 80
11 02/10/2023 18:16:34 0.03, -75.32 0.59, -72.70 298.59 80
